Tracking 19283 objects as of 17-Nov-2018
HD Live streaming from Space Station
objects crossing your sky now

AYAME 1 (ECS 1)

Track AYAME 1 (ECS 1) now!
AYAME 1 (ECS 1) is classified as:


NORAD ID: 11261
Int'l Code: 1979-009A
Perigee: 12,482.8 km
Apogee: 34,418.5 km
Inclination: 8.8 °
Period: 854.2 minutes
Semi major axis: 29821 km
RCS: 0.2528 m2 (medium)
Launch date: February 6, 1979
Source: Japan (JPN)
Launch site: TANEGASHIMA SPACE CENTER (TNSTA)
aabbcc
Your satellite tracking list
Your tracking list is empty




NASA's NSSDC Master Catalog

Two Line Element Set (TLE):
1 11261U 79009A   18320.57922007 -.00000079 +00000-0 +00000-0 0  9999
2 11261 008.8461 093.3301 3677818 186.8069 218.0703 01.68580008129466
Source of the keplerian elements: AFSPC